Theta_e
354 354 353 352 353 354 355 355 355 356 356 356 355 355 355 356 356 356 355 356 358 360 362 364 364 363 360 361 364 361 360 361 358 357 360 361 360 358 357 357 356 356
355 355 354 353 353 355 355 355 356 356 356 356 355 355 357 357 358 358 357 357 358 359 361 362 362 363 360 360 363 362 361 362 359 357 359 361 360 358 358 357 356 357
356 355 354 352 352 353 354 355 355 356 355 355 356 356 357 357 358 358 358 358 358 359 361 360 360 361 360 361 362 361 360 363 361 358 358 360 360 358 358 357 356 356
356 355 354 352 350 351 352 354 355 356 355 355 355 355 356 356 357 358 359 359 359 358 359 360 360 360 359 362 363 360 360 362 362 360 358 359 360 359 357 357 356 356
355 354 354 353 350 350 351 352 354 355 354 354 354 354 356 357 357 357 358 359 359 358 358 358 359 359 359 362 363 360 360 360 360 362 362 361 360 359 357 356 357 357
355 355 354 354 353 351 351 351 352 353 354 354 354 354 355 357 356 356 356 357 358 357 356 357 358 358 358 361 362 361 360 359 359 362 364 363 360 358 356 356 358 358
355 356 355 354 353 352 351 351 351 352 353 353 354 354 355 355 355 355 355 355 356 355 355 356 357 359 358 359 361 362 361 360 360 363 364 362 360 359 358 357 359 359
355 355 355 355 353 352 351 350 349 351 352 352 353 354 355 354 354 354 354 355 355 354 355 355 358 360 359 358 359 361 361 360 359 361 363 361 360 361 359 358 359 361
355 354 355 354 353 351 349 348 348 349 351 352 352 352 353 353 353 353 354 355 355 355 356 357 358 359 359 358 359 360 361 360 359 359 361 361 361 361 360 359 359 359
355 354 354 354 353 351 348 348 347 348 349 351 351 350 350 351 352 352 353 355 356 356 357 358 358 359 359 358 359 360 360 361 360 360 360 360 360 360 360 359 359 359
356 355 354 354 354 351 348 348 347 346 348 350 350 348 347 349 351 352 353 355 356 357 358 359 360 360 360 359 357 358 359 360 360 360 360 360 360 360 360 360 359 359
356 355 355 355 355 353 350 348 348 347 347 348 349 348 347 347 349 352 353 355 356 357 358 360 360 360 361 361 359 357 358 359 359 359 360 360 360 360 360 360 360 359
357 355 356 356 356 356 354 351 349 348 347 348 349 348 348 347 347 349 352 354 356 358 359 360 362 362 362 363 361 359 358 358 358 357 357 358 358 358 358 358 358 358
359 356 358 358 358 358 358 356 352 350 349 348 349 349 348 347 346 347 350 353 355 357 359 362 363 362 363 364 362 361 359 357 357 356 356 356 357 358 358 358 358 357
359 359 360 360 359 359 360 360 357 354 352 351 350 349 348 347 347 346 347 350 354 356 358 361 362 362 362 362 362 362 361 358 357 357 357 357 357 358 357 357 358 357
358 358 359 361 361 360 360 359 359 358 355 354 353 351 350 349 349 349 350 351 353 356 358 361 361 362 362 360 358 358 360 360 358 356 356 357 358 359 358 357 357 357
356 356 358 359 360 360 359 358 359 359 358 358 357 356 355 354 353 354 355 354 354 355 357 359 358 358 359 358 355 354 356 357 356 355 356 357 357 357 357 357 356 356
354 355 356 356 358 360 358 357 357 359 361 360 359 358 357 357 357 357 357 357 357 356 355 356 353 352 355 358 356 353 353 354 355 356 357 357 356 356 357 358 357 357
354 354 354 354 356 356 354 353 354 356 358 358 357 357 358 358 358 357 356 356 356 357 357 355 352 352 355 356 355 353 351 352 354 355 354 353 355 357 358 359 359 359
353 354 353 353 353 352 351 351 352 353 354 355 355 356 358 358 357 355 355 355 355 357 357 352 350 352 353 352 352 351 351 351 352 353 353 353 356 358 359 359 359 359
352 352 349 349 349 349 348 349 349 351 352 353 354 354 355 355 354 353 353 352 352 353 353 350 347 348 348 347 348 348 348 349 351 353 354 354 355 356 356 357 358 358
349 349 346 346 347 348 348 348 347 348 350 351 352 351 351 351 350 349 350 349 347 348 350 348 346 346 346 345 346 346 347 349 351 352 352 353 354 354 355 356 356 355
347 347 347 347 347 347 348 347 346 347 348 348 347 347 347 347 346 345 345 345 347 348 348 345 343 343 344 344 344 345 346 349 352 352 353 353 353 354 354 354 354 354
345 346 346 346 346 346 346 346 346 346 346 346 346 346 345 344 343 343 343 343 344 345 344 341 340 341 341 341 343 343 345 348 350 351 352 352 352 353 353 352 352 352
343 343 343 343 342 343 343 344 345 345 344 344 344 345 344 343 342 342 341 340 341 340 339 337 337 338 339 339 340 340 342 345 347 348 349 349 349 349 349 349 350 350
339 339 340 340 340 341 342 343 344 343 343 342 342 342 342 342 341 339 337 337 337 338 336 334 334 335 336 337 337 337 339 340 340 341 341 342 343 343 344 345 345 345
Wind_Speed
14 14 13 12 11 10 9 8 7 7 7 7 6 6 6 6 6 6 6 7 7 7 6 5 5 4 4 5 5 5 5 5 6 5 5 6 6 6 6 6 6 6
15 14 13 13 12 11 10 9 8 8 8 8 7 6 6 7 7 7 7 7 8 8 7 6 6 6 6 5 5 6 6 6 7 7 5 6 7 7 7 7 7 6
16 15 15 14 13 13 12 11 10 9 9 9 9 8 8 8 8 8 8 8 8 8 8 8 7 7 7 7 7 7 7 7 7 7 6 7 7 8 8 8 7 7
18 17 16 16 15 14 13 13 12 11 11 10 9 9 9 8 8 8 9 9 9 9 9 9 8 8 8 8 8 9 8 8 8 8 8 8 8 8 9 8 8 8
18 18 17 16 16 15 14 14 14 13 12 11 11 10 9 9 9 9 9 9 10 10 10 10 10 10 9 9 9 9 9 9 9 9 9 9 9 9 9 9 9 9
18 19 18 17 16 16 16 15 15 14 13 12 12 11 11 10 10 10 10 10 10 11 11 11 11 11 10 10 10 10 10 9 8 8 9 10 10 10 9 9 9 9
18 18 18 18 17 17 17 16 15 15 14 13 13 13 12 12 11 11 11 11 11 11 11 11 10 10 10 10 10 10 10 10 9 9 10 10 10 10 10 10 9 10
18 18 18 18 18 18 18 18 17 16 15 15 14 14 13 13 13 12 12 12 12 11 11 11 10 10 11 11 11 11 11 12 11 11 12 12 11 11 11 11 10 11
18 17 17 17 18 18 18 19 18 17 16 16 16 15 14 14 13 13 13 12 12 12 11 11 11 11 12 12 11 12 12 12 12 11 12 12 12 11 11 11 11 11
17 17 17 17 17 18 18 18 18 17 17 16 16 16 15 14 13 13 13 12 12 12 12 12 12 11 12 12 12 12 13 13 12 12 12 12 12 12 11 11 12 12
16 17 17 17 17 17 18 18 18 17 17 17 17 17 16 14 14 13 13 13 13 13 12 12 12 12 12 12 12 12 13 13 13 12 13 13 13 12 12 12 12 13
16 16 16 16 17 17 16 17 17 17 17 17 16 16 16 16 15 14 13 14 13 13 13 12 12 12 12 12 12 13 13 13 13 12 13 13 13 13 13 13 13 13
17 17 17 16 16 16 15 15 16 16 17 17 16 16 16 16 16 15 14 14 14 14 13 12 12 11 11 11 12 12 12 12 13 13 13 13 13 13 13 13 14 14
15 15 15 15 14 14 15 14 15 15 15 15 15 15 16 16 16 15 15 14 14 14 13 12 12 12 11 12 12 12 13 13 13 13 14 13 13 13 13 14 14 14
14 13 12 12 13 13 13 14 14 14 14 14 14 15 15 14 15 15 15 15 14 13 12 12 13 13 13 13 12 11 12 13 13 12 13 14 14 14 14 14 15 15
14 14 12 11 11 12 14 14 13 12 12 12 12 13 13 12 13 13 14 14 14 13 12 13 13 13 14 15 13 11 10 11 12 12 13 14 14 14 15 15 15 16
14 12 10 10 10 12 13 14 13 12 10 10 9 10 10 10 11 11 12 13 13 13 14 13 12 12 13 14 12 10 10 11 12 13 13 14 16 16 15 14 14 15
14 12 12 12 12 12 12 11 10 8 7 7 8 9 8 9 10 10 11 12 11 13 14 9 7 8 10 11 11 10 10 10 11 11 11 13 15 16 14 13 13 14
15 16 16 15 16 17 14 11 8 6 6 6 7 8 8 9 10 9 11 11 11 12 11 5 4 6 8 10 12 12 11 10 10 11 13 15 15 14 13 12 12 12
14 18 17 15 15 15 12 10 9 6 6 6 6 6 6 6 7 6 7 9 9 8 6 2 3 6 8 10 12 11 10 9 8 10 13 14 13 12 12 12 12 12
13 16 16 13 12 10 8 8 8 5 3 3 3 3 1 2 3 2 2 3 5 5 2 1 4 6 6 7 8 8 8 7 6 7 10 11 11 11 11 12 12 12
10 12 13 12 10 8 7 8 8 7 5 4 4 4 2 2 1 2 3 2 5 7 4 1 4 5 5 6 7 6 6 6 5 7 8 10 11 11 11 11 12 12
7 9 10 10 10 10 9 8 8 8 6 3 2 3 2 2 2 3 7 5 4 6 4 0 2 5 5 6 8 6 6 6 8 9 9 9 10 10 10 11 11 12
2 4 6 9 10 10 9 8 7 7 6 4 2 1 2 3 3 1 6 5 1 1 2 2 3 4 5 6 7 7 6 5 7 9 8 8 9 9 10 10 11 12
9 7 8 10 11 10 10 9 8 8 9 7 5 5 7 7 7 5 3 2 4 5 4 4 4 5 6 6 6 6 5 4 5 6 6 7 8 8 9 9 10 12
13 12 11 10 9 10 11 10 8 8 9 10 8 9 11 12 10 9 8 7 8 7 6 4 5 7 7 6 5 5 4 4 5 5 5 6 6 7 8 8 8 9
Wind_Direction
208 209 210 212 216 221 222 221 224 229 234 236 232 224 223 221 221 223 222 218 217 219 218 216 221 228 232 231 230 240 250 256 261 253 247 255 259 261 261 256 257 263
210 210 211 212 213 216 219 222 227 232 233 234 235 231 226 225 222 222 223 222 222 222 218 219 222 223 226 225 221 230 238 241 250 253 249 254 259 262 262 262 260 257
213 213 213 214 215 216 218 221 224 229 232 230 230 231 228 227 224 223 223 223 224 223 218 220 223 222 225 223 219 228 231 231 240 247 247 249 254 258 259 260 260 254
214 215 217 218 219 218 219 220 221 223 228 228 228 229 229 229 227 224 223 222 224 225 221 222 224 223 224 221 221 229 230 229 234 234 238 246 249 252 255 256 257 257
215 216 218 220 221 221 220 221 221 221 223 225 226 227 226 229 231 229 226 222 223 225 225 225 223 223 224 221 223 229 230 231 230 224 231 244 247 248 250 250 250 253
215 216 218 220 221 221 221 221 221 222 224 224 224 226 223 223 228 231 231 227 226 226 225 226 225 225 225 222 225 229 231 236 232 222 228 240 245 246 247 246 244 247
217 216 218 221 222 222 222 222 222 223 226 226 224 224 223 222 224 226 228 230 232 233 231 230 226 226 228 226 227 228 232 239 237 228 232 240 243 244 246 246 243 244
221 220 219 221 223 222 222 222 223 223 224 226 226 224 222 224 224 224 224 226 231 234 235 236 230 227 232 232 231 231 233 237 237 232 234 239 241 240 242 245 244 243
224 224 222 222 223 223 223 222 222 222 222 225 227 227 225 226 227 227 225 224 228 232 232 235 234 231 235 236 234 234 236 240 240 236 235 238 239 238 240 242 242 243
223 225 225 224 224 224 224 223 222 221 221 223 227 229 230 229 228 229 228 224 226 229 228 230 232 231 234 237 237 237 239 242 242 240 238 239 240 241 242 242 242 244
222 223 224 226 227 228 226 225 224 223 222 223 225 227 230 230 227 226 227 225 225 227 227 227 228 230 231 235 239 241 242 244 244 243 242 242 244 244 243 244 245 245
223 224 224 225 228 231 231 228 227 226 225 224 225 226 229 231 229 227 226 225 226 227 227 226 225 227 230 233 239 243 244 246 248 248 248 248 248 248 246 245 245 247
224 227 228 227 228 231 235 234 231 230 229 228 229 229 230 231 231 231 230 229 228 227 227 226 225 226 227 229 236 242 246 248 250 251 252 251 250 250 249 246 245 247
230 230 229 230 231 232 234 236 235 233 232 232 231 231 232 233 234 234 234 233 232 230 228 225 225 229 230 230 233 239 244 248 249 250 251 252 253 255 254 251 249 250
233 231 229 227 227 229 232 233 235 234 233 232 232 233 233 234 237 239 240 238 236 233 229 225 227 231 230 229 232 237 244 250 252 253 256 257 256 256 255 254 254 254
238 231 222 218 222 229 233 234 233 232 233 233 232 233 234 235 238 241 242 242 239 236 231 228 233 235 232 234 240 244 245 251 257 257 261 265 264 262 261 257 255 256
248 235 219 219 230 232 235 239 236 229 230 231 229 232 233 235 239 240 245 247 246 244 239 234 235 239 240 245 255 260 253 252 257 254 254 261 263 262 263 261 259 260
242 236 227 229 233 229 235 250 247 234 230 224 225 233 235 237 242 245 250 253 253 252 250 248 247 242 238 242 254 264 260 255 258 259 259 261 260 259 261 263 264 265
229 227 224 224 227 227 231 244 247 250 254 244 239 244 242 243 248 249 253 257 259 260 263 277 275 246 237 246 259 266 262 254 256 263 267 266 262 263 266 266 267 270
221 225 223 221 226 226 223 226 226 230 248 256 261 263 257 258 260 260 268 271 268 263 264 275 256 248 254 266 272 272 269 263 258 262 267 267 268 272 275 275 274 273
222 226 226 225 226 220 209 212 208 192 197 215 225 232 260 316 289 252 262 287 285 284 290 250 255 266 276 282 282 282 283 278 261 260 270 274 278 281 281 282 282 278
231 235 230 218 206 194 186 188 179 163 158 171 195 201 164 69 359 254 244 268 293 296 298 244 266 291 310 311 308 307 307 296 269 264 273 275 278 281 282 284 284 283
237 240 223 194 175 167 161 160 162 163 162 167 230 238 203 135 92 313 293 290 296 297 298 89 316 325 338 331 322 324 323 304 281 273 272 273 277 282 283 285 288 290
191 204 173 148 138 134 133 133 137 141 136 129 144 164 152 141 125 270 282 275 253 359 12 36 8 1 8 357 340 337 335 314 295 290 288 286 287 289 291 294 295 295
86 97 110 116 115 110 109 112 116 120 119 121 139 142 129 128 131 144 171 148 102 83 62 48 54 54 43 27 8 357 355 345 324 316 315 315 311 311 313 310 303 300
80 83 86 94 100 101 100 104 111 115 113 119 133 134 123 119 122 131 128 105 86 80 72 58 65 72 65 57 43 24 24 30 25 20 7 351 343 337 328 319 316 314